Regional Weather Roundup
Issued by NWS Cleveland, OH

Home | Current Version | Previous Version | Text Only | Print | Product List | Glossary Off
Versions: 1 2 3 4 5 6 7 8 9 10 11 12 13 14 15 16 17 18 19 20 21 22 23 24 25 26 27 28 29 30 31 32 33 34 35 36 37 38 39 40 41 42 43 44 45 46 47 48 49 50

000
ASUS41 KCLE 050910
RWRCLE
OHIO REGIONAL WEATHER ROUNDUP
NATIONAL WEATHER SERVICE WILMINGTON, OH
500 AM EDT WED AUG 05 2015

NOTE: "FAIR" INDICATES FEW OR NO CLOUDS BELOW 12,000 FEET WITH NO
SIGNIFICANT WEATHER AND/OR OBSTRUCTIONS TO VISIBILITY.

OHZ001>008-015>018-024>027-034-035-043-044-051000-
   NORTHWEST OHIO

CITY           SKY/WX    TMP DP  RH WIND       PRES   REMARKS
DEFIANCE       CLEAR     58  54  86 CALM      30.03S
FINDLAY        CLEAR     58  56  93 CALM      30.02S
TOLEDO EXPRESS CLEAR     57  54  89 CALM      30.02S
TOLEDO EXEC    CLEAR     62  54  74 NW3       30.02S
LIMA           CLEAR     57  55  93 CALM      30.03S
$$

OHZ009>014-019>023-028>033-038-089-051000-
   NORTHEAST OHIO

CITY           SKY/WX    TMP DP  RH WIND       PRES   REMARKS
CLE-HOPKINS    PTCLDY    61  57  87 SW6       30.01R
CLE-LAKEFRONT  CLEAR     72  58  61 NW12      29.97R
CUY CO. ARPT   NOT AVBL
LORAIN-ELYRIA  CLEAR     59  56  89 W3        30.01R
ASHTABULA      CLEAR     56  54  93 CALM      29.99R
AKRON-CANTON   CLEAR     60  55  83 W3        30.00S
WOOSTER        CLEAR     55  53  93 CALM      30.02R
MANSFIELD      CLEAR     63  56  78 W5        30.03R
YOUNGSTOWN     PTCLDY    60  56  86 CALM      29.99R
$$

OHZ042-051>053-060>062-070>072-077>081-051000-
  SOUTHWEST OHIO

CITY           SKY/WX    TMP DP  RH WIND       PRES   REMARKS
CINC-COVINGTON MOCLDY    66  62  87 CALM      30.04R
CINC-LUNKEN    CLOUDY    65  65 100 CALM      30.04R
HAMILTON       MOCLDY    63  62  97 CALM      30.04R
DAYTON         PTCLDY    62  58  86 CALM      30.05R
WRIGHT-PAT AFB MOCLDY    62  60  93 CALM      30.03R
DAYTON GENERAL MOCLDY    65  58  78 CALM      30.03S
WILMINGTON     MOCLDY    63  60  90 CALM      30.04R
$$

OHZ036-037-039>041-045>050-054>059-063>069-073>076-082>088-051000-
  CENTRAL AND SOUTHEAST OHIO

CITY           SKY/WX    TMP DP  RH WIND       PRES   REMARKS
COLUMBUS       PTCLDY    62  58  86 N5        30.01S
OSU AIRPORT    CLEAR     62  58  86 NW3       30.02S
BOLTON FIELD   PTCLDY    62  59  92 W9        30.03R
RICKENBACK AFB PTCLDY    61  60  94 CALM      30.02R
NEWARK         FOG       58  56  93 CALM      30.02S VSB 3/4
MARION         CLEAR     59  56  89 CALM      30.03R
LANCASTER      PTCLDY    57  56  96 CALM      30.02R
ZANESVILLE     PTCLDY    59  56  89 CALM      30.01S
NEW PHILLY     MOCLDY    55  55 100 SE3       30.01S FOG
$$


USA.gov is the U.S. government's official web portal to all federal, state and local government web resources and services.